カタログに戻る

IRIDIUM 33 DEB

運用中PO
NORAD 33881·DEBRIS·🇺🇸 United States

打ち上げ Sep 14, 1997 から Baikonur Cosmodrome

Loading…

次のパス (今後24時間)

TLE

最新Source: Space-Track

元期: Sep 14, 2026, 17:39 UTC

1 33881U 97051BA  26257.73569736  .00005911  00000-0  11159-2 0  9998
2 33881  86.3878 345.9987 0051304 317.7183 204.3715 14.63467382915284

AllMySatでIRIDIUM 33 DEBをリアルタイム追跡

Download on the App Store